EHI
3 2 1 0 0 0 0 0 0 0 0 0 0 0 0 0 0 0 0 0 0 0 0 1 1 1 0 0 0 0 0 0 1 2 2 2 1 0 0 0 0 0 0 0 0 0 0 0 0
4 2 0 0 0 0 0 0 0 0 0 0 0 0 0 0 0 0 0 0 0 0 0 1 2 1 0 0 0 0 0 0 0 1 1 1 1 0 0 0 0 0 0 0 0 0 0 0 0
3 1 0 0 0 0 0 0 0 0 0 0 0 0 0 0 0 0 0 0 0 0 0 1 1 1 0 0 0 0 0 0 0 0 0 0 0 0 0 0 0 0 0 0 0 0 0 0 0
1 0 0 0 0 0 0 0 0 0 0 0 0 0 0 0 0 0 0 0 0 0 0 0 0 1 0 0 0 1 1 1 1 0 0 1 0 0 0 1 1 0 0 0 0 0 0 0 0
0 0 0 0 0 0 0 0 0 0 0 0 0 0 0 0 0 0 0 0 0 0 0 0 0 1 1 0 0 2 3 3 2 2 2 3 2 1 1 2 2 1 0 0 1 0 0 0 0
0 0 0 0 0 0 0 0 0 0 0 0 0 0 0 0 0 0 0 0 0 0 0 0 0 0 1 0 0 1 2 3 3 3 4 5 4 3 3 4 4 3 2 1 0 0 0 0 0
0 0 0 0 0 0 0 0 0 0 0 0 0 0 0 0 0 0 0 0 0 0 0 0 0 0 0 0 0 0 1 1 2 2 4 7 6 4 5 6 5 5 4 2 1 0 0 0 0
0 0 0 0 0 0 0 0 0 0 0 0 0 0 0 0 0 0 0 0 0 0 0 0 0 0 0 0 0 0 1 0 0 0 3 5 4 4 5 5 4 4 4 4 2 1 0 0 0
0 0 0 0 0 0 0 0 0 0 0 0 0 0 0 0 0 0 0 0 0 0 0 0 0 0 0 0 0 0 0 0 0 0 1 1 1 1 2 2 2 3 3 3 4 2 1 0 0
0 0 0 0 0 0 0 0 0 0 0 0 0 0 0 0 0 0 0 0 0 0 0 0 0 0 0 0 0 0 0 0 0 0 0 0 0 0 0 1 1 2 2 2 2 2 1 0 0
0 0 0 0 0 0 0 0 0 0 0 0 0 0 0 0 0 0 0 0 0 0 0 0 0 0 0 0 0 0 0 0 0 0 0 0 0 0 0 0 0 0 1 1 1 1 0 0 0
0 0 0 0 0 0 0 0 0 0 0 0 0 0 0 0 0 0 0 0 0 0 0 0 0 0 0 0 0 0 0 0 0 0 0 0 0 0 0 0 0 0 0 0 0 0 0 0 0
0 1 1 1 1 0 0 0 0 0 0 0 0 0 0 0 0 0 0 0 0 0 0 0 0 0 0 0 0 0 0 0 0 0 0 0 0 0 0 0 0 0 0 0 0 0 0 0 0
0 1 1 1 0 0 0 0 0 0 0 0 0 0 0 0 0 0 0 0 0 0 0 0 0 0 0 0 0 0 0 0 0 0 0 0 0 0 0 0 0 0 0 0 0 0 0 0 0
0 0 0 0 0 0 0 0 0 0 0 0 0 0 0 0 0 0 0 0 0 0 0 0 0 0 0 0 0 0 0 0 0 0 0 0 0 0 0 0 0 0 0 0 0 0 0 0 0
0 0 0 0 0 0 0 0 0 0 0 0 0 0 0 0 0 0 0 0 0 0 0 0 0 0 0 0 0 0 0 0 0 0 0 0 0 0 0 0 0 0 0 0 0 0 0 0 0
0 0 0 0 0 0 0 0 0 0 0 0 0 0 0 0 0 0 0 0 0 0 0 0 0 0 0 0 0 0 0 0 0 0 0 0 0 0 0 0 0 0 0 0 0 0 0 0 0
0 0 0 0 0 0 0 0 0 0 0 0 0 0 0 0 0 0 0 0 0 0 0 0 0 0 0 0 0 0 0 0 0 0 0 0 0 0 0 0 0 0 0 0 0 0 0 0 0
0 0 0 0 0 0 0 0 0 0 0 0 0 0 0 0 0 0 0 0 0 0 0 0 0 0 0 0 0 0 0 0 0 0 0 0 0 0 0 0 0 0 0 0 0 0 0 0 0
0 0 0 0 0 0 0 0 0 0 0 0 0 0 0 0 0 0 0 0 0 0 0 0 0 0 0 0 0 0 0 0 0 0 0 0 0 0 0 0 0 0 0 0 0 0 0 0 0
0 0 0 0 0 0 0 0 0 0 0 0 0 0 0 0 0 0 0 0 0 0 0 0 0 0 0 0 0 0 0 0 0 0 0 0 0 0 0 0 0 0 0 0 0 0 0 0 0
0 0 0 0 0 0 0 0 0 0 0 0 0 0 0 0 0 0 0 0 0 0 0 0 0 0 0 0 0 0 0 0 0 0 0 0 0 0 0 0 0 0 0 0 0 0 0 0 0
0 0 0 0 0 0 0 0 0 0 0 0 0 0 0 0 0 0 0 0 0 0 0 0 0 0 0 0 0 0 0 0 0 0 0 0 0 0 0 0 0 0 0 0 0 0 0 0 0
0 0 0 0 0 0 0 0 0 0 0 0 0 0 0 0 0 0 0 0 0 0 0 0 0 0 0 0 0 0 0 0 0 0 0 0 0 0 0 0 0 0 0 0 0 0 0 0 0
0 0 0 0 0 0 0 0 0 0 0 0 0 0 0 0 0 0 0 0 0 0 0 0 0 0 0 0 0 0 0 0 0 0 0 0 0 0 0 0 0 0 0 0 0 0 0 0 0
0 0 0 0 0 0 0 0 0 0 0 0 0 0 0 0 0 0 0 0 0 0 0 0 0 0 0 0 0 0 0 0 0 0 0 0 0 0 0 0 0 0 0 0 0 0 0 0 0
0 0 0 0 0 0 0 0 0 0 0 0 0 0 0 0 0 0 0 0 0 0 0 0 0 0 0 0 0 0 0 0 0 0 0 0 0 0 0 0 0 0 0 0 0 0 0 0 0
0 0 0 0 0 0 0 0 0 0 0 0 0 0 0 0 0 0 0 0 0 0 0 0 0 0 0 0 0 0 0 0 0 0 0 0 0 0 0 0 0 0 0 0 0 0 0 0 0
0 0 0 0 0 0 0 0 0 0 0 0 0 0 0 0 0 0 0 0 0 0 0 0 0 0 0 0 0 0 0 0 0 0 0 0 0 0 0 0 0 0 0 0 0 0 0 0 0
0 0 0 0 0 0 0 0 0 0 0 0 0 0 0 0 0 0 0 0 0 0 0 0 0 0 0 0 0 0 0 0 0 0 0 0 0 0 0 0 0 0 0 0 0 0 0 0 0
Wind_Speed
7 7 4 2 3 2 1 3 1 1 2 2 4 6 6 4 3 2 2 1 2 3 2 4 6 6 5 5 5 5 5 5 6 6 6 6 6 6 6 6 5 5 5 4 4 3 3 3 3
6 5 3 2 2 1 2 2 1 1 4 3 4 5 5 5 3 2 2 2 3 3 2 2 4 4 4 4 4 5 5 5 5 5 6 6 6 6 6 6 6 6 5 5 4 3 3 3 3
7 4 3 2 1 2 2 1 1 3 4 3 4 4 4 3 2 1 0 2 3 3 2 1 2 2 2 2 3 3 3 4 5 5 6 7 7 7 7 7 6 6 6 6 5 5 4 3 3
4 3 3 2 2 2 2 1 1 3 3 4 4 4 3 3 1 1 2 3 4 2 2 1 2 1 0 1 2 2 3 4 4 5 6 6 7 7 7 7 7 7 7 7 6 6 6 4 3
3 3 2 0 2 2 2 1 2 1 2 3 3 4 2 3 3 4 4 3 3 2 2 2 3 2 2 3 3 3 4 5 5 5 6 6 6 7 7 7 8 8 7 7 7 7 7 6 5
3 3 2 2 2 2 2 1 1 3 3 3 4 4 2 1 2 3 3 3 3 2 3 3 4 4 4 4 4 5 5 6 6 7 7 7 7 8 8 8 8 8 8 8 8 8 8 7 6
3 3 2 2 2 1 1 1 2 3 3 3 5 5 2 1 1 3 4 4 3 3 3 3 3 4 6 6 6 6 6 6 6 7 7 7 8 8 9 8 8 8 8 8 9 8 8 8 7
3 3 1 2 2 2 1 2 2 2 3 3 4 6 4 4 4 4 4 4 3 2 2 2 3 3 3 4 6 7 7 7 7 7 7 7 7 7 8 8 8 8 9 9 9 8 8 8 8
3 3 1 3 4 2 1 2 2 2 4 3 2 3 4 7 6 5 3 2 1 1 2 2 2 2 3 3 5 6 7 7 7 6 7 6 3 3 4 6 8 8 8 8 7 7 8 8 7
3 2 4 2 3 2 2 3 4 3 3 2 3 4 6 7 6 5 4 3 2 0 1 1 1 2 3 3 3 3 3 4 3 3 3 2 2 2 3 6 8 8 8 7 6 7 6 4 1
3 4 2 1 2 3 3 2 3 7 3 6 7 8 7 6 5 6 5 4 3 1 0 1 1 2 2 2 2 2 2 2 3 3 3 2 2 2 2 2 3 4 5 3 3 3 2 2 2
3 2 2 1 1 2 4 4 3 5 5 6 9 10 8 7 7 7 6 4 2 2 1 0 1 1 2 2 2 2 2 2 2 3 3 2 1 2 2 1 2 2 1 2 2 1 1 2 2
3 2 1 1 1 1 3 3 3 4 2 6 8 8 8 8 6 5 4 3 3 3 2 1 0 1 2 2 2 2 2 2 2 2 2 2 1 2 2 2 2 2 1 1 2 1 2 2 2
2 1 1 1 1 1 3 1 2 4 5 8 9 8 8 8 7 4 4 4 4 3 3 1 0 1 1 2 2 2 2 2 2 2 3 2 1 2 2 2 2 2 2 2 2 2 1 2 2
2 2 2 1 1 1 3 1 5 4 7 8 8 7 7 6 6 6 6 5 5 4 2 2 1 0 1 2 2 2 2 2 2 2 3 3 2 2 2 2 2 2 2 2 1 2 1 1 2
3 2 1 3 3 3 4 6 5 6 9 8 7 6 6 5 6 5 5 4 4 3 2 1 0 1 1 2 2 2 2 2 2 2 3 4 4 3 2 2 2 3 2 1 1 1 1 1 2
2 1 3 4 3 4 4 6 3 6 9 9 8 7 6 5 5 5 5 5 4 4 3 1 0 0 1 2 2 2 2 2 2 2 3 3 4 3 2 2 2 3 2 1 1 0 1 1 2
4 3 4 5 3 5 5 7 4 5 8 8 7 6 6 7 7 5 5 4 4 3 2 1 0 0 1 2 2 2 2 2 2 2 3 4 3 4 3 2 3 3 2 2 1 1 1 1 2
5 4 4 5 3 5 7 9 6 5 7 8 7 7 7 7 4 4 4 4 3 2 2 2 1 1 1 1 1 2 2 2 2 3 3 4 4 4 3 2 3 3 2 2 2 1 1 1 1
4 3 5 4 2 4 4 8 6 6 9 9 10 10 9 6 4 5 5 4 4 3 3 3 3 2 1 1 1 1 1 2 2 3 3 4 4 4 3 3 2 2 2 3 2 1 1 1 0
4 6 6 3 1 1 2 7 5 3 4 5 6 7 7 9 8 7 6 5 4 4 5 4 4 3 2 1 0 1 2 2 3 3 3 4 4 4 3 3 2 3 2 2 2 1 0 1 1
5 6 4 3 2 2 0 4 8 3 3 5 7 7 8 7 7 7 7 6 6 6 5 4 4 3 2 1 0 0 0 1 2 2 3 4 4 4 3 3 3 2 2 2 2 1 0 0 1
4 2 3 2 3 1 1 2 9 2 4 7 8 8 8 8 8 9 9 8 6 5 4 4 3 3 2 1 1 1 1 1 2 2 3 4 4 4 4 3 3 3 2 2 2 2 1 0 1
5 7 6 6 4 2 4 4 8 5 7 5 6 8 8 8 8 7 6 5 4 4 4 4 4 4 3 2 2 2 2 2 2 3 3 3 3 3 4 4 3 2 2 2 2 2 1 1 0
4 6 4 4 3 6 2 3 10 6 6 6 6 8 8 8 8 7 7 7 6 6 6 5 4 5 4 3 3 3 3 2 3 2 2 3 3 3 4 4 3 2 2 2 2 1 2 1 1
4 7 7 4 4 5 1 6 9 5 4 4 4 5 6 7 7 8 8 8 7 7 6 5 6 6 4 4 4 3 3 2 2 3 2 2 2 3 4 3 3 3 3 2 2 1 2 1 1
6 3 5 6 2 2 6 7 9 2 1 1 3 5 7 8 8 8 7 7 7 7 7 7 6 6 5 4 4 3 3 3 3 3 2 2 2 3 3 3 3 3 3 2 2 1 2 2 2
5 8 6 5 3 3 6 5 6 6 6 4 4 6 8 7 7 7 7 7 7 7 6 5 6 6 5 4 4 3 3 3 3 2 3 3 3 2 3 3 3 3 3 3 2 1 2 2 2
4 4 5 4 4 5 3 9 7 7 7 8 8 8 8 8 8 8 7 7 6 5 5 5 5 5 4 4 4 3 3 3 2 2 3 3 2 2 2 3 3 3 3 3 2 2 2 2 2
5 7 8 5 4 5 3 10 7 6 7 7 8 7 6 7 7 7 7 6 5 6 5 5 5 5 5 4 4 3 3 2 2 3 3 3 3 2 2 2 3 3 3 3 2 3 3 2 3
Wind_Direction
143 113 93 65 58 53 288 288 276 331 60 46 52 71 82 67 69 104 305 359 105 127 155 174 172 167 165 170 179 183 185 185 181 180 179 179 179 178 178 178 175 170 164 157 151 141 133 121 112
127 113 80 66 83 68 282 289 333 357 130 125 59 60 71 69 60 67 357 54 96 111 108 146 172 172 177 187 194 201 205 210 207 203 202 201 200 199 199 196 194 192 188 181 178 178 173 157 141
121 86 85 71 110 195 251 309 62 66 97 90 71 49 65 50 57 80 254 106 92 87 87 120 151 161 185 209 218 226 231 234 233 230 225 222 218 217 217 215 210 209 207 201 199 200 201 195 179
116 80 67 76 257 248 252 277 132 116 83 64 94 71 57 20 18 133 121 112 97 75 65 72 95 88 16 301 285 280 274 269 265 260 254 245 239 238 237 235 228 226 223 218 213 210 212 214 212
73 97 89 65 271 279 258 239 210 142 90 78 96 94 62 7 68 102 107 98 98 77 44 36 58 41 12 352 345 334 320 306 297 289 279 273 266 258 253 250 246 242 238 234 227 221 219 222 224
82 86 110 200 253 286 282 225 120 95 103 110 105 106 106 50 88 109 104 94 86 76 44 26 22 19 7 358 347 335 327 319 314 312 306 297 289 280 270 262 259 253 248 243 240 233 229 228 228
122 114 167 192 213 255 208 136 122 120 116 130 127 114 126 133 140 114 93 83 70 60 48 27 17 10 4 359 348 338 330 326 325 321 322 314 306 295 285 279 273 266 258 252 249 245 240 238 237
131 113 140 193 201 227 154 97 89 116 121 111 122 139 172 182 138 105 85 71 61 53 41 18 10 10 3 354 353 351 345 340 337 333 331 327 325 318 308 299 293 284 272 262 257 252 248 244 245
106 88 200 212 194 225 156 121 91 64 100 80 100 154 157 134 121 107 90 60 41 41 25 18 10 1 352 342 356 357 352 349 349 344 339 346 344 330 312 306 301 293 284 275 270 263 255 252 250
113 151 222 209 191 184 164 153 151 109 96 94 80 87 112 124 131 140 155 170 180 197 339 8 9 357 356 358 6 355 351 345 343 335 336 335 332 316 315 315 314 307 300 292 273 263 259 254 261
153 186 214 224 199 153 144 147 145 136 179 191 171 156 143 142 152 166 181 186 193 189 141 19 355 356 5 353 348 350 342 341 340 341 339 336 336 323 326 320 318 319 316 312 293 272 239 206 205
144 204 196 211 170 149 158 150 159 185 214 190 167 156 154 162 177 186 188 189 178 160 170 166 17 21 12 6 351 348 342 341 343 340 345 347 338 331 323 312 306 311 304 292 287 252 229 218 210
168 206 253 317 38 160 149 164 184 221 200 137 143 151 165 177 189 195 188 182 170 171 184 190 49 38 9 5 348 4 346 339 336 341 345 352 334 322 321 311 309 306 297 286 283 262 223 211 214
171 172 294 338 57 148 145 163 167 227 149 143 156 171 182 186 187 178 180 186 188 189 195 198 152 27 20 11 358 350 343 339 345 348 346 351 342 328 325 321 321 311 304 286 275 275 247 221 207
98 66 342 260 176 165 123 247 229 197 151 162 177 185 190 197 190 189 190 188 190 191 196 207 198 67 29 13 358 359 349 354 358 351 352 360 355 340 336 328 324 312 307 298 287 280 246 233 227
73 69 297 265 172 167 156 251 247 169 163 182 192 197 197 202 204 203 192 187 185 181 192 225 161 79 25 12 354 350 355 2 356 349 351 357 356 353 349 344 327 319 316 308 288 269 249 235 227
63 177 237 274 194 164 181 243 262 169 176 193 199 205 203 207 212 205 195 189 184 184 184 184 103 47 356 2 358 357 1 6 355 353 352 350 351 357 0 348 330 332 332 325 310 275 224 238 239
196 204 227 242 213 171 205 244 254 187 191 202 204 208 207 211 218 200 188 182 175 171 170 174 208 298 350 357 357 0 7 1 358 355 349 352 349 352 355 348 346 348 350 340 333 308 268 242 250
164 183 232 246 196 178 225 250 253 203 203 211 211 211 215 220 219 189 178 169 160 160 173 199 225 264 2 9 355 351 340 333 341 343 348 351 350 350 352 354 354 357 358 338 328 315 314 291 258
156 197 239 271 185 185 252 269 262 206 208 208 207 208 208 202 189 187 181 176 178 184 199 219 235 247 246 234 253 255 282 300 300 317 343 352 353 349 356 2 351 349 350 357 358 355 347 316 343
190 203 215 218 83 92 330 308 292 256 225 215 207 200 196 195 194 192 188 192 192 205 210 217 227 235 245 249 24 16 12 354 351 344 340 339 343 347 354 358 352 347 351 342 336 340 16 317 313
220 224 197 157 114 290 91 285 290 286 260 227 215 198 197 197 190 190 191 196 206 216 214 221 226 234 242 207 140 104 59 315 295 301 310 322 339 348 356 359 356 349 347 338 324 8 333 238 296
199 93 118 112 126 359 314 213 284 305 260 246 225 209 202 195 190 193 198 201 209 211 210 218 225 239 240 222 204 181 244 261 291 307 325 336 338 346 354 354 355 351 346 340 340 352 6 288 227
122 73 59 51 69 304 235 181 277 243 228 245 221 206 198 193 193 199 202 199 214 217 216 217 224 243 240 231 225 216 242 269 304 321 332 333 329 332 345 348 349 345 346 338 333 342 359 358 273
96 91 39 357 4 254 253 205 251 256 241 233 223 206 194 186 186 191 196 202 213 216 218 216 221 242 242 237 239 236 241 245 256 277 297 312 322 320 325 340 336 336 334 335 343 358 350 344 334
155 136 155 201 231 279 281 236 254 260 273 245 216 187 177 184 191 197 201 203 209 216 216 215 221 237 240 236 242 245 241 236 248 257 260 274 276 284 305 325 331 333 338 352 1 356 334 340 327
129 151 155 132 177 279 282 284 299 247 261 167 161 166 189 198 199 203 204 205 210 215 217 213 218 232 236 232 236 245 246 243 252 263 264 270 277 287 311 327 338 339 344 353 360 345 329 328 319
132 138 107 119 156 265 295 284 261 256 238 221 206 206 212 208 206 208 207 209 213 217 221 216 216 226 231 227 228 234 241 246 255 265 274 279 291 303 320 332 337 341 349 352 356 334 328 337 321
116 109 109 114 150 159 273 277 234 235 226 214 220 218 212 207 207 207 209 210 211 214 214 217 219 223 228 225 226 238 251 256 260 259 268 277 287 299 310 319 326 333 336 338 340 328 334 339 329
175 170 150 155 204 174 186 268 267 252 242 219 224 226 218 212 209 205 204 199 203 212 215 218 218 220 224 217 215 228 244 253 258 264 273 276 282 288 291 306 316 318 321 325 325 321 332 331 322